Location: Wien
(48.2082°N, 16.3738°E)
Time: 20:27:43
(UTC+02:00)

MOZHAYETS 4 - Pass Details

Date: 31 March 2019
Orbit: 661 x 681 km, 98.1° (Epoch: 16 October)

Event Time Altitude Azimuth Distance (km) Brightness Sun altitude
Exits shadow 03:00:09 25° 344° (NNW) 1,370 9.6 -31.5°
Drops below altitude 10° 03:02:03 10° 345° (NNW) 2,118 10.7 -31.3°
Sets 03:04:19 0° 346° (NNW) 3,040 11.6 -31.1°
